When you browse on this site, cookies collect data to enhance your experience and personalize the content and advertising you see.
Visit our Privacy Policy to learn more. By continuing to use the site, you agree to this use of cookies and data.
  • In United Kingdom
  • List of Countries
  • For 7 days
  • Water Temperature
  • Satellite Maps
  • Weather Map
  • Weather Widgets
  • user-avatar
    Login

    Hourly Weather Shirin

    Today, 16 June, Sunday

    Time Temperature Precipitation Wind Pressure Humidity
    00:00 +21°C° 0 mm 2 mps 688 mmHg 27%
    01:00 +20°C° 0 mm 2 mps 687 mmHg 30%
    02:00 +19°C° 0 mm 2 mps 687 mmHg 30%
    03:00 +19°C° 0 mm 2 mps 688 mmHg 30%
    04:00 +19°C° 0 mm 1 mps 688 mmHg 31%
    05:00 +21°C° 0 mm 1 mps 688 mmHg 27%
    06:00 +23°C° 0 mm 1 mps 689 mmHg 24%
    07:00 +25°C° 0 mm 2 mps 689 mmHg 21%
    08:00 +26°C° 0 mm 1 mps 689 mmHg 18%
    09:00 +28°C° 0 mm 1 mps 690 mmHg 16%
    10:00 +29°C° 0 mm 1 mps 690 mmHg 14%
    11:00 +30°C° 0 mm 2 mps 690 mmHg 13%
    12:00 +31°C° 0 mm 3 mps 689 mmHg 12%
    13:00 +33°C° 0 mm 3 mps 689 mmHg 10%
    14:00 +33°C° 0 mm 3 mps 689 mmHg 10%
    15:00 +33°C° 0 mm 3 mps 689 mmHg 10%
    16:00 +33°C° 0 mm 3 mps 689 mmHg 10%
    17:00 +30°C° 0 mm 4 mps 689 mmHg 12%
    18:00 +28°C° 0 mm 5 mps 688 mmHg 14%
    19:00 +26°C° 0 mm 6 mps 688 mmHg 16%
    20:00 +25°C° 0 mm 5 mps 688 mmHg 18%
    21:00 +23°C° 0 mm 5 mps 688 mmHg 19%
    22:00 +22°C° 0 mm 4 mps 688 mmHg 21%
    23:00 +22°C° 0 mm 4 mps 688 mmHg 22%

    Tomorrow, 17 June, Monday

    Time Temperature Precipitation Wind Pressure Humidity
    00:00 +21°C° 0 mm 4 mps 688 mmHg 24%
    01:00 +20°C° 0 mm 3 mps 687 mmHg 26%
    02:00 +20°C° 0 mm 3 mps 687 mmHg 27%
    03:00 +19°C° 0 mm 3 mps 687 mmHg 28%
    04:00 +18°C° 0 mm 3 mps 687 mmHg 30%
    05:00 +20°C° 0 mm 3 mps 687 mmHg 27%
    06:00 +21°C° 0 mm 4 mps 688 mmHg 25%
    07:00 +23°C° 0 mm 4 mps 688 mmHg 22%
    08:00 +25°C° 0 mm 4 mps 688 mmHg 21%
    09:00 +27°C° 0 mm 5 mps 688 mmHg 19%
    10:00 +28°C° 0 mm 5 mps 688 mmHg 18%
    11:00 +29°C° 0 mm 5 mps 688 mmHg 17%
    12:00 +30°C° 0 mm 4 mps 688 mmHg 16%
    13:00 +32°C° 0 mm 4 mps 688 mmHg 15%
    14:00 +32°C° 0 mm 4 mps 687 mmHg 15%
    15:00 +32°C° 0 mm 4 mps 687 mmHg 14%
    16:00 +32°C° 0 mm 5 mps 687 mmHg 14%
    17:00 +30°C° 0 mm 5 mps 687 mmHg 17%
    18:00 +28°C° 0 mm 5 mps 687 mmHg 19%
    19:00 +27°C° 0 mm 4 mps 686 mmHg 21%
    20:00 +26°C° 0 mm 4 mps 686 mmHg 23%
    21:00 +25°C° 0 mm 4 mps 686 mmHg 25%
    22:00 +23°C° 0 mm 4 mps 687 mmHg 26%
    23:00 +22°C° 0 mm 4 mps 686 mmHg 27%

    Day after tomorrow, 18 June, Tuesday

    Time Temperature Precipitation Wind Pressure Humidity
    00:00 +22°C° 0 mm 4 mps 686 mmHg 28%
    01:00 +21°C° 0 mm 3 mps 686 mmHg 30%
    02:00 +21°C° 0 mm 3 mps 686 mmHg 30%
    03:00 +20°C° 0 mm 3 mps 686 mmHg 31%
    04:00 +20°C° 0 mm 3 mps 685 mmHg 32%
    05:00 +22°C° 0 mm 4 mps 686 mmHg 28%
    06:00 +25°C° 0 mm 5 mps 687 mmHg 25%
    07:00 +28°C° 0 mm 6 mps 687 mmHg 21%
    08:00 +29°C° 0 mm 7 mps 687 mmHg 19%
    09:00 +30°C° 0 mm 7 mps 687 mmHg 18%
    10:00 +32°C° 0 mm 8 mps 688 mmHg 17%
    11:00 +33°C° 0 mm 8 mps 687 mmHg 16%
    12:00 +33°C° 0 mm 8 mps 687 mmHg 15%
    13:00 +34°C° 0 mm 8 mps 687 mmHg 14%
    14:00 +34°C° 0 mm 8 mps 687 mmHg 14%
    15:00 +34°C° 0 mm 7 mps 687 mmHg 14%
    16:00 +34°C° 0 mm 7 mps 686 mmHg 14%
    17:00 +32°C° 0 mm 6 mps 686 mmHg 16%
    18:00 +29°C° 0 mm 5 mps 686 mmHg 18%
    19:00 +28°C° 0 mm 4 mps 687 mmHg 20%
    20:00 +27°C° 0 mm 4 mps 687 mmHg 22%
    21:00 +26°C° 0 mm 4 mps 687 mmHg 23%
    22:00 +25°C° 0 mm 4 mps 687 mmHg 24%
    23:00 +25°C° 0 mm 3 mps 687 mmHg 26%

    19 June, Wednesday

    Time Temperature Precipitation Wind Pressure Humidity
    00:00 +24°C° 0 mm 3 mps 686 mmHg 27%
    01:00 +22°C° 0 mm 3 mps 686 mmHg 29%
    02:00 +22°C° 0 mm 3 mps 686 mmHg 30%
    03:00 +22°C° 0 mm 3 mps 686 mmHg 31%
    04:00 +21°C° 0 mm 2 mps 685 mmHg 32%
    05:00 +24°C° 0 mm 2 mps 686 mmHg 28%
    06:00 +26°C° 0 mm 3 mps 686 mmHg 25%
    07:00 +29°C° 0 mm 3 mps 687 mmHg 21%
    08:00 +30°C° 0 mm 4 mps 687 mmHg 20%
    09:00 +32°C° 0 mm 5 mps 687 mmHg 18%
    10:00 +33°C° 0 mm 6 mps 687 mmHg 17%
    11:00 +33°C° 0 mm 7 mps 687 mmHg 16%
    12:00 +34°C° 0 mm 7 mps 687 mmHg 15%
    13:00 +34°C° 0 mm 8 mps 687 mmHg 14%
    14:00 +34°C° 0 mm 8 mps 687 mmHg 14%
    15:00 +34°C° 0 mm 7 mps 687 mmHg 14%
    16:00 +33°C° 0 mm 7 mps 687 mmHg 14%
    17:00 +32°C° 0 mm 6 mps 687 mmHg 16%
    18:00 +29°C° 0 mm 5 mps 686 mmHg 18%
    19:00 +28°C° 0 mm 5 mps 686 mmHg 19%
    20:00 +27°C° 0 mm 4 mps 686 mmHg 19%
    21:00 +26°C° 0 mm 4 mps 686 mmHg 20%
    22:00 +25°C° 0 mm 4 mps 686 mmHg 20%
    23:00 +23°C° 0 mm 4 mps 686 mmHg 20%

    20 June, Thursday

    Time Temperature Precipitation Wind Pressure Humidity
    00:00 +24°C° 0 mm 3 mps 686 mmHg 20%
    01:00 +22°C° 0 mm 3 mps 685 mmHg 20%
    02:00 +22°C° 0 mm 3 mps 685 mmHg 20%
    03:00 +21°C° 0 mm 2 mps 685 mmHg 20%
    04:00 +21°C° 0 mm 2 mps 685 mmHg 20%
    05:00 +24°C° 0 mm 2 mps 685 mmHg 18%
    06:00 +26°C° 0 mm 2 mps 686 mmHg 16%
    07:00 +28°C° 0 mm 2 mps 686 mmHg 15%
    08:00 +29°C° 0 mm 2 mps 687 mmHg 15%
    09:00 +30°C° 0 mm 3 mps 687 mmHg 15%
    10:00 +33°C° 0 mm 3 mps 687 mmHg 15%
    11:00 +33°C° 0 mm 3 mps 687 mmHg 15%
    12:00 +34°C° 0 mm 3 mps 687 mmHg 15%
    13:00 +34°C° 0 mm 3 mps 687 mmHg 14%
    14:00 +34°C° 0 mm 3 mps 687 mmHg 14%
    15:00 +35°C° 0 mm 4 mps 687 mmHg 14%
    16:00 +35°C° 0 mm 4 mps 686 mmHg 15%
    17:00 +33°C° 0 mm 5 mps 686 mmHg 16%
    18:00 +30°C° 0 mm 5 mps 686 mmHg 17%
    19:00 +29°C° 0 mm 5 mps 686 mmHg 18%
    20:00 +28°C° 0 mm 4 mps 686 mmHg 17%
    21:00 +27°C° 0 mm 4 mps 686 mmHg 17%
    22:00 +26°C° 0 mm 4 mps 686 mmHg 16%
    23:00 +25°C° 0 mm 4 mps 686 mmHg 17%

    21 June, Friday

    Time Temperature Precipitation Wind Pressure Humidity
    00:00 +25°C° 0 mm 4 mps 686 mmHg 17%
    01:00 +23°C° 0 mm 4 mps 685 mmHg 18%
    02:00 +24°C° 0 mm 3 mps 685 mmHg 20%
    03:00 +22°C° 0 mm 3 mps 685 mmHg 23%
    04:00 +21°C° 0 mm 2 mps 685 mmHg 25%
    05:00 +24°C° 0 mm 3 mps 686 mmHg 23%
    06:00 +26°C° 0 mm 3 mps 686 mmHg 21%
    07:00 +28°C° 0 mm 3 mps 687 mmHg 20%
    08:00 +29°C° 0 mm 4 mps 687 mmHg 17%
    09:00 +32°C° 0 mm 5 mps 687 mmHg 15%
    10:00 +33°C° 0 mm 5 mps 688 mmHg 13%
    11:00 +34°C° 0 mm 5 mps 688 mmHg 13%
    12:00 +34°C° 0 mm 5 mps 687 mmHg 13%
    13:00 +34°C° 0 mm 5 mps 687 mmHg 12%
    14:00 +34°C° 0 mm 6 mps 687 mmHg 12%
    15:00 +34°C° 0 mm 6 mps 687 mmHg 13%
    16:00 +34°C° 0 mm 6 mps 687 mmHg 13%
    17:00 +32°C° 0 mm 6 mps 687 mmHg 15%
    18:00 +30°C° 0 mm 5 mps 687 mmHg 16%
    19:00 +28°C° 0 mm 5 mps 687 mmHg 18%
    20:00 +27°C° 0 mm 4 mps 687 mmHg 19%
    21:00 +26°C° 0 mm 4 mps 687 mmHg 19%
    22:00 +25°C° 0 mm 4 mps 687 mmHg 19%
    23:00 +25°C° 0 mm 4 mps 687 mmHg 20%
    Show more